Location: Andiroba
(19.8650°S, 43.9258°W)
Time: 00:18:26
(UTC+00:00)

Meteor 1-5 Rocket - Pass Details

Date: 15 June 2024
Orbit: 787 x 915 km, 81.2° (Epoch: 24 July)

Event Time Altitude Azimuth Distance (km) Brightness Sun altitude
Rises 08:26:32 0° 185° (S) 3,506 7.2 -14.3°
Reaches altitude 10° 08:28:59 10° 183° (S) 2,576 6.5 -13.7°
Maximum altitude 08:34:54 81° 96° (E) 925 4.5 -12.4°
Drops below altitude 10° 08:40:51 10° 9° (N) 2,594 7.1 -11.1°
Sets 08:43:19 0° 8° (N) 3,531 7.8 -10.6°
